Vorticity
9 18 20 12 12 16 14 18 14 6 12 18 16 7 1 3 5 7 6 3 2 2 5 11 13 13 11 8 7 6 5 5 10 15 15 12 10 7 5 4 4 5 4 5 5 5 4 2 2 2 3 3 1 2 3 3 5 4 3 3 3 4 4 4 4 5 6 6 6 5 6 6 5 6 7 7 5 5 6 6 4 4 4 1 2 3 1 1
17 20 19 12 12 8 2 14 4 -2 17 18 10 5 -0 4 7 6 3 1 3 6 11 14 12 9 7 8 6 5 8 11 14 14 11 9 6 3 4 5 5 5 5 4 3 3 3 1 2 3 2 3 3 3 4 3 4 3 2 3 4 4 5 6 6 6 6 6 6 6 7 5 5 6 6 5 4 3 5 4 3 5 5 2 3 4 4 4
24 18 17 12 6 1 0 9 1 9 25 12 5 4 1 7 7 2 2 3 7 11 13 10 6 6 7 7 5 8 13 13 11 10 6 4 3 4 5 5 4 4 4 3 3 1 2 3 3 4 3 3 4 2 3 3 3 3 3 5 6 6 7 8 7 6 6 6 6 6 6 5 4 5 3 4 4 3 3 2 2 3 5 5 4 3 4 4
23 15 16 9 2 0 2 7 9 19 16 3 5 5 5 8 3 2 4 6 11 12 8 5 6 7 6 4 6 13 13 9 9 7 3 3 4 5 5 5 4 3 4 2 3 3 3 4 4 3 3 4 3 2 3 4 5 6 6 7 7 7 8 8 7 6 5 7 7 5 6 4 3 3 2 4 3 1 2 3 4 5 6 6 5 2 2 4
22 14 13 11 7 1 5 15 15 12 4 3 6 3 5 2 0 5 7 11 13 8 5 6 7 6 5 7 12 12 8 7 6 3 3 5 5 5 5 5 5 3 3 3 3 5 4 3 3 3 2 2 3 4 5 6 7 7 6 7 6 7 7 7 7 6 6 8 7 4 5 3 3 4 1 3 2 2 5 6 6 6 5 5 5 4 5 6
19 5 4 10 9 2 10 19 11 5 4 4 4 3 3 1 5 10 11 13 8 5 7 7 5 6 10 13 14 8 6 7 4 3 4 5 5 5 5 4 4 4 4 4 3 3 3 2 3 3 3 4 6 6 6 6 6 6 6 6 6 7 7 7 7 6 7 8 6 4 5 3 3 2 -1 3 4 5 8 6 4 5 4 3 4 5 6 6
8 -4 3 6 5 8 12 12 7 4 4 4 5 3 2 5 10 11 11 8 5 8 8 4 5 10 13 12 9 5 6 5 3 5 5 5 5 4 5 4 4 4 4 3 3 2 2 3 3 4 5 6 6 5 5 5 5 5 5 4 5 7 8 7 7 7 7 9 7 4 5 3 2 3 3 6 4 3 5 2 2 3 2 2 3 6 6 4
0 -3 9 7 6 12 8 6 6 4 5 5 3 2 5 10 12 10 7 5 7 8 4 5 10 12 10 8 6 4 4 5 5 6 5 5 5 4 5 4 4 4 3 1 2 3 3 3 5 6 6 6 4 3 4 4 5 6 5 5 6 8 8 7 8 9 9 10 7 3 6 7 4 4 3 3 2 2 3 2 3 4 3 5 6 7 6 4
2 -1 8 9 8 11 7 6 6 5 5 2 2 7 11 12 11 8 5 8 8 4 5 10 12 9 7 6 3 3 5 5 5 5 5 5 4 5 5 4 5 3 2 2 2 3 4 5 6 5 4 5 3 3 5 5 5 6 5 5 6 8 7 7 9 10 8 8 6 4 8 9 4 4 3 2 3 4 4 4 6 7 7 8 8 6 5 5
5 4 8 10 9 10 9 6 5 4 1 1 8 11 12 11 7 6 8 8 4 3 10 12 9 7 6 5 3 5 6 5 5 5 4 5 4 5 4 4 4 2 2 3 3 4 5 6 5 4 3 5 4 4 6 5 6 7 5 5 7 8 7 6 8 8 6 8 6 4 7 7 4 4 5 4 4 5 6 7 7 7 6 8 7 6 7 7
10 13 15 15 13 10 5 4 4 1 1 7 12 11 10 8 5 8 8 3 4 9 13 9 6 5 5 6 5 5 6 5 5 5 4 4 4 4 3 3 3 3 3 3 4 4 5 5 3 3 3 5 5 5 7 7 7 5 5 6 6 7 5 5 6 5 6 9 7 5 6 8 4 2 4 4 5 7 7 7 6 5 7 8 7 7 8 7
15 15 16 15 11 5 2 4 4 2 7 10 11 10 7 5 8 8 3 3 10 12 9 6 4 4 5 6 6 5 5 6 5 5 5 3 3 3 2 2 3 3 3 4 5 4 4 3 2 4 5 6 6 7 7 7 5 4 6 6 5 5 4 3 5 5 6 8 8 5 6 9 7 5 7 7 7 7 7 6 5 6 8 8 7 7 8 7
12 8 8 8 6 4 2 4 5 7 11 11 9 7 5 8 9 3 3 10 11 9 7 6 4 5 6 5 7 7 5 5 4 4 4 3 3 3 2 3 3 4 4 4 4 4 3 3 4 6 7 7 7 7 7 6 5 4 5 6 5 6 6 5 5 6 7 7 6 6 7 10 9 7 8 7 7 8 7 6 6 7 8 7 7 7 7 8
7 4 5 6 7 5 3 5 9 11 11 10 7 4 7 9 4 3 10 11 8 7 7 4 5 7 7 6 7 6 5 5 4 3 3 3 3 2 4 4 3 4 4 3 3 3 4 5 6 8 8 7 7 7 7 5 3 4 5 6 5 4 5 5 5 5 6 7 6 7 9 9 8 7 8 8 8 8 7 7 7 7 7 7 8 7 7 7
5 6 6 7 6 4 6 9 10 11 9 7 4 6 10 5 2 9 11 7 7 8 5 5 8 8 6 6 5 5 5 4 3 3 3 3 3 3 4 4 4 4 4 3 4 5 7 8 8 8 7 6 6 6 5 4 3 4 5 3 1 2 4 5 6 6 6 7 7 9 10 7 7 7 8 9 8 6 6 7 6 5 6 7 8 7 6 6
6 6 5 5 6 6 9 11 10 10 7 4 6 9 6 2 7 11 7 6 8 6 6 8 8 7 7 6 5 5 4 3 2 2 2 2 3 4 3 4 4 3 4 4 6 8 9 8 8 7 6 5 5 5 5 5 3 3 3 2 1 2 4 5 6 6 6 7 8 8 8 7 9 8 7 7 4 3 4 5 4 4 5 6 7 6 5 5
6 3 3 1 4 10 10 10 10 7 6 7 10 7 4 8 11 7 4 7 7 6 8 8 7 6 7 7 5 4 3 2 2 3 3 2 3 4 4 4 4 4 6 7 8 8 8 8 6 4 4 5 6 5 5 4 1 1 3 6 5 3 4 2 3 6 6 6 6 7 9 9 8 6 4 3 1 2 4 4 4 4 4 4 6 5 4 5
6 2 4 -0 2 12 11 10 7 6 9 10 7 4 8 12 8 5 6 7 6 7 8 7 5 5 5 5 4 3 2 2 2 3 4 4 4 4 4 4 5 7 7 8 7 5 6 6 3 4 5 5 6 5 4 3 3 3 4 5 5 3 2 2 4 6 5 4 5 8 9 6 2 2 2 0 1 3 4 5 4 3 3 5 5 4 4 5
6 2 6 4 4 12 11 8 6 8 11 7 4 7 12 9 4 5 6 5 6 6 6 5 5 7 6 4 4 3 2 2 3 2 3 5 5 4 5 6 7 7 6 6 4 3 4 4 4 6 4 4 5 4 4 6 5 5 5 4 3 4 4 4 5 5 5 3 2 4 6 2 0 1 1 0 3 4 5 5 3 3 4 5 4 4 4 3
6 2 5 6 7 12 9 6 9 11 8 3 7 12 10 4 3 6 5 4 6 7 7 6 5 6 4 2 2 2 2 3 3 3 3 6 6 5 6 7 5 5 4 4 3 3 4 5 5 5 3 4 6 6 6 6 5 5 5 3 4 6 5 4 3 3 3 1 0 4 5 2 1 1 -1 2 4 4 5 5 4 5 5 4 4 4 3 3
5 2 3 6 11 12 6 7 12 8 4 6 11 10 5 3 5 6 6 5 7 9 9 7 5 3 2 3 2 1 2 2 3 4 5 6 7 6 5 6 4 3 3 3 4 4 5 6 6 5 5 5 6 6 6 5 5 5 4 5 6 5 4 4 3 2 2 2 3 4 2 1 1 -0 1 4 4 3 4 5 6 5 4 4 4 3 2 3
4 4 3 7 14 10 6 11 10 3 7 12 10 5 3 5 5 6 7 6 8 10 8 5 4 4 3 3 3 3 3 3 3 4 6 6 6 4 3 4 4 2 2 4 5 4 5 6 5 6 5 5 6 5 4 5 6 5 4 6 6 4 5 5 2 2 4 3 1 -0 1 1 1 0 3 5 4 3 5 6 6 5 4 4 2 1 2 4
3 6 4 8 13 8 9 12 4 4 12 11 6 3 5 7 5 7 8 7 8 9 6 4 4 3 3 2 1 1 2 4 5 6 6 5 4 3 3 3 4 3 3 4 5 4 5 5 4 6 4 4 6 5 5 6 6 6 5 5 6 6 5 3 2 4 4 1 -1 1 2 1 0 3 5 4 3 4 5 6 6 5 4 2 1 2 2 2
2 5 6 10 9 7 11 7 2 9 12 6 4 4 6 7 6 9 9 7 9 8 4 4 4 3 3 3 2 1 1 3 5 7 5 2 3 3 2 2 3 4 4 4 4 3 4 5 4 5 5 4 6 6 7 6 6 6 6 6 7 7 6 5 4 4 2 1 2 3 3 2 3 4 3 2 3 4 4 6 6 4 2 1 3 5 3 2
4 5 8 11 7 9 10 3 6 13 8 3 5 5 6 7 8 9 8 7 8 6 3 3 3 1 2 4 6 6 3 1 3 5 4 1 3 2 2 2 2 4 4 4 4 3 4 4 4 5 5 5 6 6 6 6 7 6 7 7 7 7 8 6 4 5 5 4 4 5 4 5 6 4 1 1 2 3 4 5 5 3 3 3 4 5 4 3
8 6 10 10 6 9 7 3 10 11 4 2 5 6 6 6 8 8 8 8 7 5 3 2 2 2 2 2 3 6 5 4 3 3 4 3 1 1 1 2 3 4 4 4 3 3 4 4 4 5 5 5 6 6 6 7 7 7 7 7 7 7 8 7 6 8 8 6 6 6 4 7 8 4 2 2 3 4 5 4 2 3 5 4 3 3 5 4
10 8 11 10 9 9 5 8 13 7 2 3 6 7 7 7 8 7 7 6 4 4 3 2 4 5 5 3 2 3 3 6 6 3 5 5 2 0 0 1 4 4 3 4 3 2 4 4 4 5 5 6 6 6 6 6 7 8 8 7 7 8 7 7 7 8 9 8 7 6 5 10 10 4 2 3 3 3 5 4 3 4 6 5 3 2 4 4
11 10 10 10 10 7 6 12 10 2 3 5 7 7 8 9 8 7 5 4 7 8 4 3 5 5 5 4 4 3 0 3 6 6 5 4 3 2 1 2 5 4 2 3 2 2 4 4 5 5 5 6 7 6 6 6 7 8 7 7 8 8 8 8 7 9 10 8 9 9 6 9 10 4 2 5 4 4 6 5 4 5 4 3 4 3 4 5
11 10 10 10 8 6 10 11 4 2 5 7 7 8 9 9 8 8 5 6 9 5 1 4 3 3 6 4 4 5 3 2 4 6 6 3 3 3 2 3 5 4 3 2 2 3 4 5 5 5 5 6 7 6 6 7 7 8 7 8 9 9 8 8 8 9 10 8 10 11 6 6 10 8 6 7 7 8 7 6 5 4 4 4 4 4 5 6
11 10 10 9 6 8 11 7 2 4 6 7 8 8 10 9 7 7 5 5 5 1 4 8 4 4 5 4 3 4 4 4 3 4 5 4 4 3 3 4 4 3 4 3 2 3 5 6 6 6 5 6 6 6 7 7 7 7 8 9 9 9 8 8 8 8 9 10 10 10 7 5 10 11 9 8 8 8 5 4 5 3 3 4 4 4 5 6
10 10 9 6 7 10 8 2 3 6 5 7 9 9 9 7 6 6 5 5 4 4 7 6 4 6 4 2 2 2 2 3 2 2 3 3 3 2 3 3 3 4 5 4 3 3 5 6 6 6 6 6 6 6 7 7 7 6 7 9 8 8 9 7 7 7 8 10 9 8 7 6 12 13 9 8 9 5 2 2 4 3 3 4 4 5 5 5
9 10 7 6 9 9 3 1 4 6 7 8 8 9 8 6 6 5 4 4 3 7 7 3 5 6 3 3 2 2 3 2 1 1 1 3 2 2 3 3 3 4 5 4 4 4 5 6 6 5 6 6 5 6 7 7 7 6 7 9 7 8 9 6 6 7 7 9 9 7 4 5 13 13 7 10 9 3 4 5 4 3 3 4 5 5 5 5
9 8 6 9 9 4 0 3 6 6 8 9 8 9 8 6 7 6 3 1 1 6 6 4 6 5 4 4 2 3 4 3 3 2 2 3 3 4 5 4 4 3 3 4 5 5 5 5 5 5 6 5 5 6 6 7 7 6 7 7 7 8 8 5 5 5 6 7 7 6 4 4 11 12 7 10 10 7 9 6 3 3 4 6 5 4 5 5
8 7 8 9 4 1 3 6 7 7 8 9 8 9 7 6 7 6 2 2 3 4 3 3 6 6 5 4 2 4 4 4 4 3 3 3 3 5 6 5 5 3 3 4 5 5 5 4 4 5 5 4 6 6 4 6 7 7 8 7 7 8 8 6 5 4 5 6 5 6 7 3 8 11 7 8 11 11 10 6 5 6 6 6 5 4 5 5
8 9 8 4 1 3 7 6 8 8 8 10 9 7 6 6 6 5 3 6 7 5 4 5 5 5 5 4 3 4 4 4 4 4 5 4 4 6 5 6 5 4 4 4 4 5 5 4 5 6 6 5 7 6 4 5 6 6 9 7 7 9 9 7 6 5 4 5 6 7 7 3 5 10 8 8 11 11 10 9 8 7 6 7 6 4 5 4
9 7 4 1 3 6 7 7 8 8 8 10 9 7 6 5 5 6 6 7 6 5 5 6 5 3 3 3 4 4 4 5 5 6 6 5 6 6 5 6 5 4 4 4 4 5 5 5 5 6 6 6 7 6 5 5 7 7 7 6 8 10 9 6 6 7 4 5 6 7 9 4 2 9 9 9 11 10 11 10 9 8 7 7 6 5 5 4
6 4 2 2 5 7 7 8 8 8 9 10 8 7 7 5 5 6 6 5 5 6 6 5 5 4 3 4 5 6 6 6 7 7 6 7 7 6 6 6 5 5 5 4 5 5 4 4 5 6 5 6 7 7 6 6 7 8 6 7 9 9 9 6 7 8 4 5 4 6 12 6 0 9 10 9 11 10 11 11 9 10 9 8 8 5 4 4
4 2 2 5 8 9 8 8 8 8 9 9 7 7 7 6 5 5 6 7 6 6 6 5 6 5 5 6 6 6 7 7 7 7 6 7 8 7 6 5 5 6 5 4 5 5 4 4 5 5 4 6 6 6 7 6 7 9 8 9 8 6 9 8 8 8 6 7 4 6 14 5 -1 10 11 9 11 9 10 11 8 10 9 8 8 5 4 5
4 3 5 9 10 9 8 7 7 7 8 7 6 7 6 6 6 5 6 8 7 7 6 5 6 6 6 6 6 6 7 6 6 6 6 7 7 7 6 5 6 7 6 6 5 4 5 4 5 6 5 6 6 6 7 5 7 9 8 9 8 7 8 9 9 8 5 7 5 7 16 6 1 12 10 8 11 8 10 12 8 9 9 7 8 6 4 5
5 6 9 11 10 8 8 7 6 7 7 5 5 6 6 6 6 7 8 8 7 6 6 6 6 7 6 5 6 6 6 6 6 6 5 6 6 7 6 6 7 7 6 6 5 5 5 5 6 6 5 6 5 6 7 6 8 9 7 9 10 7 7 7 9 7 4 9 7 7 14 8 3 10 9 7 10 7 8 11 10 11 10 9 10 7 6 6
8 10 10 10 9 7 7 8 6 7 8 6 5 6 6 7 6 7 8 7 7 7 6 6 6 6 6 6 6 6 7 7 7 6 6 6 6 6 6 6 7 7 6 6 5 5 5 5 6 6 5 7 5 5 7 6 8 10 8 9 10 9 7 5 7 8 7 10 7 5 11 9 5 9 9 7 9 7 7 9 10 11 10 10 11 8 7 6
10 10 10 8 7 5 6 6 5 6 7 6 7 8 8 8 7 7 7 6 7 8 7 7 7 7 8 7 8 8 9 9 7 7 7 6 6 6 6 6 7 7 6 6 5 5 5 5 6 5 6 7 5 4 6 6 7 11 11 10 10 9 7 5 5 7 9 10 7 4 9 10 8 10 9 7 8 7 7 7 8 9 9 10 11 9 7 7
9 9 9 7 6 6 6 6 5 8 8 6 8 9 8 8 6 7 8 7 7 8 8 9 8 8 9 9 10 10 9 9 8 8 7 6 6 6 6 6 7 7 7 6 6 6 5 5 5 5 5 7 5 3 5 6 5 9 11 10 9 7 6 6 5 7 8 8 6 4 7 10 11 10 7 7 8 7 7 7 6 7 9 9 10 9 8 8
8 8 7 5 6 6 6 6 6 8 9 8 8 8 7 7 6 7 9 8 8 9 8 8 8 9 10 10 10 11 10 10 9 9 7 6 6 6 6 7 7 7 7 6 6 6 5 5 5 4 3 5 5 2 4 7 5 7 10 11 11 9 7 7 6 6 6 6 6 4 5 7 8 7 6 6 6 6 6 6 4 6 9 9 10 10 9 9
7 7 6 4 6 7 6 7 7 8 8 8 8 7 6 7 6 7 8 8 8 8 8 8 8 8 9 9 10 11 10 10 10 9 7 6 6 6 7 7 7 7 6 6 6 5 5 5 4 4 2 4 6 4 4 7 7 7 10 13 13 9 7 7 6 6 6 6 7 5 4 5 5 5 6 5 5 5 5 4 5 7 8 7 7 8 9 10
7 7 6 5 6 7 7 7 8 8 6 6 7 6 6 7 7 6 7 8 9 8 8 8 8 8 9 10 11 11 11 10 10 9 8 7 6 6 7 8 7 7 6 6 6 5 6 5 5 5 4 4 6 6 4 6 7 8 10 13 13 9 7 8 5 5 7 7 5 3 4 6 6 6 6 4 4 5 5 5 5 8 8 6 6 8 7 8
7 7 6 6 7 7 7 7 7 7 5 5 6 6 5 7 6 6 7 7 8 8 9 8 8 9 10 10 11 11 11 10 9 9 9 7 7 7 8 8 7 6 5 5 5 6 6 5 5 7 5 3 6 6 5 6 7 9 10 12 12 9 9 8 5 4 7 8 6 3 3 5 6 6 6 5 5 6 6 6 6 8 8 6 7 8 6 6
6 7 7 7 7 6 7 7 7 7 6 6 5 5 5 5 5 5 5 6 6 7 7 7 6 7 8 9 10 11 11 10 9 10 10 9 8 8 8 7 6 6 5 5 5 5 6 4 4 8 6 3 5 6 7 7 6 9 12 11 9 9 9 7 4 5 7 8 6 4 3 4 5 6 5 5 7 7 7 7 6 7 7 7 7 7 6 6
6 7 6 7 7 7 7 7 7 6 6 5 5 5 5 5 5 5 4 4 5 4 5 5 4 4 5 6 8 9 10 11 10 9 9 8 8 8 7 6 6 5 5 6 4 3 6 4 3 7 8 4 4 6 6 6 7 9 11 9 9 9 9 8 5 5 7 7 7 6 4 3 3 4 6 7 8 7 7 7 6 6 6 6 7 7 7 7
6 6 6 6 7 7 6 6 6 6 5 5 5 5 5 5 5 5 4 3 3 3 4 4 3 2 2 3 4 6 8 9 9 9 8 8 8 7 6 5 5 5 4 5 5 3 5 5 2 5 8 5 3 6 5 4 7 9 9 9 9 9 8 8 6 5 7 7 7 6 4 3 2 3 7 8 7 7 6 6 5 7 7 5 6 8 8 8
6 6 6 5 5 6 6 5 6 6 5 5 5 4 5 4 4 4 4 4 4 4 4 3 3 3 2 2 2 2 3 4 6 7 7 8 8 6 5 5 4 5 4 4 5 3 3 5 3 3 7 6 3 4 6 5 7 9 8 9 9 8 8 8 7 5 6 7 7 5 4 4 3 4 5 5 5 5 5 5 6 7 6 5 7 8 8 9
6 5 5 5 5 5 6 5 6 6 5 6 5 5 5 4 4 4 4 4 5 4 4 4 4 4 3 4 3 2 2 2 3 4 4 5 6 5 4 4 4 5 5 4 5 4 4 5 4 3 6 6 4 4 7 8 8 7 9 10 8 7 8 8 8 7 5 6 6 4 3 3 3 4 4 4 4 4 4 6 7 6 6 6 7 7 8 10
Height
5799 5799 5800 5801 5802 5803 5804 5804 5805 5806 5808 5809 5810 5811 5813 5814 5815 5816 5817 5817 5818 5819 5820 5820 5820 5821 5821 5821 5821 5822 5821 5821 5822 5821 5821 5821 5821 5821 5821 5821 5821 5821 5821 5821 5820 5819 5818 5817 5816 5815 5814 5813 5812 5810 5809 5809 5808 5808 5807 5806 5804 5803 5802 5801 5799 5798 5796 5794 5793 5791 5790 5787 5785 5783 5781 5779 5776 5773 5770 5767 5764 5761 5759 5757 5754 5751 5746 5742
5798 5799 5799 5801 5802 5803 5804 5804 5805 5806 5808 5809 5810 5811 5813 5814 5815 5816 5816 5817 5818 5819 5819 5820 5820 5821 5821 5821 5822 5822 5821 5821 5822 5822 5822 5822 5822 5822 5822 5822 5822 5822 5821 5821 5820 5819 5818 5817 5816 5814 5813 5812 5811 5810 5809 5808 5808 5807 5806 5805 5803 5802 5801 5799 5797 5796 5794 5792 5790 5789 5787 5785 5782 5779 5777 5775 5773 5770 5767 5763 5759 5755 5751 5749 5747 5744 5740 5736
5798 5798 5799 5801 5803 5804 5804 5804 5805 5806 5807 5808 5810 5811 5813 5814 5815 5816 5816 5817 5818 5819 5819 5820 5820 5821 5821 5822 5822 5822 5822 5822 5822 5822 5822 5822 5822 5823 5822 5822 5822 5822 5821 5820 5820 5819 5818 5816 5815 5814 5813 5811 5810 5810 5809 5808 5807 5806 5805 5804 5802 5801 5799 5798 5796 5794 5792 5790 5788 5787 5785 5782 5779 5777 5774 5772 5769 5766 5763 5760 5756 5752 5747 5743 5741 5737 5733 5729
5797 5798 5799 5801 5802 5803 5804 5805 5805 5806 5807 5809 5810 5812 5813 5814 5815 5816 5816 5817 5818 5818 5819 5820 5821 5821 5822 5822 5822 5822 5822 5822 5823 5823 5822 5823 5823 5823 5823 5822 5822 5821 5821 5820 5819 5818 5817 5816 5815 5813 5812 5811 5810 5809 5808 5807 5806 5805 5803 5802 5800 5799 5798 5796 5794 5792 5790 5788 5786 5784 5782 5780 5777 5774 5771 5768 5766 5763 5760 5756 5753 5749 5744 5739 5736 5733 5728 5723
5797 5798 5800 5801 5802 5803 5804 5805 5805 5806 5808 5809 5811 5812 5814 5815 5815 5816 5817 5817 5818 5818 5819 5820 5821 5822 5822 5822 5822 5822 5823 5823 5823 5823 5823 5823 5823 5823 5823 5822 5822 5821 5820 5820 5819 5818 5816 5815 5814 5813 5812 5811 5810 5809 5808 5807 5806 5804 5802 5801 5799 5798 5796 5795 5793 5790 5788 5785 5783 5782 5780 5777 5774 5771 5768 5765 5762 5759 5756 5752 5748 5744 5740 5735 5730 5727 5723 5718
5798 5799 5800 5802 5803 5804 5804 5805 5806 5807 5809 5810 5811 5813 5814 5815 5816 5816 5817 5817 5818 5819 5820 5821 5821 5822 5822 5822 5822 5822 5823 5823 5823 5823 5823 5823 5823 5823 5823 5822 5822 5821 5820 5819 5818 5817 5816 5815 5814 5813 5812 5811 5809 5808 5806 5805 5804 5803 5801 5799 5798 5796 5795 5793 5791 5788 5786 5784 5781 5779 5778 5775 5772 5768 5765 5762 5758 5755 5751 5747 5744 5740 5736 5731 5726 5722 5717 5712
5799 5799 5801 5802 5803 5804 5804 5805 5806 5808 5809 5811 5812 5813 5814 5815 5816 5816 5817 5817 5818 5819 5820 5821 5822 5822 5822 5822 5822 5823 5823 5823 5823 5824 5824 5824 5823 5823 5822 5822 5821 5821 5820 5819 5818 5817 5816 5815 5814 5813 5811 5810 5809 5808 5806 5804 5803 5801 5800 5798 5796 5795 5793 5791 5789 5787 5784 5782 5778 5776 5775 5772 5768 5765 5761 5758 5754 5751 5748 5744 5740 5737 5732 5728 5723 5718 5713 5707
5799 5800 5801 5802 5803 5804 5805 5806 5807 5809 5810 5811 5813 5814 5815 5815 5816 5816 5817 5818 5819 5820 5821 5821 5822 5822 5822 5823 5823 5823 5824 5824 5824 5824 5824 5824 5823 5823 5822 5822 5821 5820 5820 5819 5818 5817 5816 5815 5814 5812 5811 5810 5808 5807 5806 5804 5803 5801 5799 5797 5795 5793 5791 5789 5788 5785 5782 5780 5776 5773 5772 5769 5765 5762 5758 5755 5752 5749 5746 5741 5737 5734 5729 5725 5719 5714 5708 5702
5800 5800 5801 5802 5803 5804 5805 5807 5808 5810 5811 5812 5813 5814 5815 5816 5816 5817 5818 5818 5819 5820 5821 5821 5822 5822 5823 5823 5823 5824 5825 5824 5824 5824 5824 5823 5823 5823 5822 5822 5821 5820 5820 5819 5818 5817 5816 5815 5813 5812 5811 5809 5808 5806 5805 5803 5801 5799 5797 5796 5794 5791 5789 5787 5785 5784 5780 5777 5774 5771 5769 5766 5762 5759 5756 5752 5749 5745 5742 5738 5734 5729 5724 5719 5714 5708 5702 5696
5800 5801 5802 5802 5803 5804 5806 5808 5809 5811 5812 5813 5814 5814 5815 5816 5817 5818 5818 5819 5820 5821 5821 5822 5822 5823 5823 5824 5824 5825 5825 5825 5824 5824 5824 5823 5823 5823 5822 5822 5821 5820 5819 5819 5818 5817 5816 5814 5813 5812 5810 5809 5807 5806 5804 5801 5800 5798 5796 5795 5793 5790 5787 5785 5783 5781 5778 5775 5771 5768 5766 5764 5760 5755 5753 5749 5746 5743 5739 5734 5729 5724 5719 5714 5708 5702 5696 5689
5800 5801 5802 5803 5804 5805 5807 5809 5810 5811 5812 5813 5814 5815 5815 5816 5817 5818 5819 5820 5820 5821 5822 5822 5823 5824 5824 5825 5825 5825 5825 5825 5825 5824 5824 5824 5823 5823 5822 5822 5821 5820 5819 5819 5818 5816 5815 5814 5813 5811 5810 5808 5807 5805 5803 5801 5799 5797 5795 5793 5792 5790 5787 5784 5781 5778 5776 5773 5769 5765 5763 5762 5758 5753 5750 5746 5742 5738 5734 5729 5724 5719 5714 5708 5702 5696 5689 5682
5800 5801 5802 5803 5805 5806 5808 5809 5811 5812 5813 5813 5814 5815 5816 5817 5818 5819 5820 5820 5821 5822 5822 5823 5824 5824 5825 5825 5825 5826 5825 5825 5825 5824 5824 5824 5824 5823 5822 5821 5821 5820 5820 5819 5817 5816 5815 5814 5812 5811 5809 5808 5806 5804 5803 5801 5798 5795 5793 5791 5790 5788 5786 5782 5779 5776 5773 5771 5767 5763 5760 5759 5755 5751 5747 5743 5739 5735 5731 5726 5720 5715 5709 5703 5697 5690 5683 5676
5801 5802 5803 5805 5806 5807 5809 5810 5811 5812 5813 5814 5815 5816 5817 5817 5819 5820 5821 5821 5822 5822 5823 5824 5825 5825 5825 5825 5826 5826 5825 5825 5825 5824 5824 5824 5823 5823 5822 5821 5821 5820 5819 5818 5817 5816 5814 5813 5812 5810 5809 5807 5806 5804 5801 5799 5797 5794 5792 5790 5787 5785 5782 5778 5775 5773 5770 5768 5766 5761 5757 5755 5752 5747 5744 5740 5735 5732 5727 5722 5716 5711 5705 5698 5692 5685 5678 5670
5802 5803 5804 5806 5807 5808 5809 5810 5811 5812 5813 5814 5815 5816 5817 5818 5820 5821 5821 5822 5822 5823 5824 5825 5825 5826 5825 5826 5826 5826 5825 5825 5825 5825 5824 5824 5823 5823 5822 5822 5821 5820 5819 5818 5817 5815 5814 5812 5811 5809 5808 5807 5805 5803 5800 5799 5796 5793 5791 5789 5787 5784 5780 5777 5774 5771 5768 5765 5763 5760 5755 5752 5749 5744 5741 5736 5732 5727 5722 5717 5712 5706 5700 5693 5687 5679 5671 5663
5803 5804 5805 5807 5808 5809 5810 5810 5811 5812 5814 5815 5816 5817 5818 5819 5820 5821 5822 5822 5823 5824 5824 5825 5825 5826 5826 5826 5826 5826 5825 5825 5825 5825 5824 5824 5823 5823 5822 5822 5821 5820 5819 5817 5816 5815 5813 5812 5810 5809 5807 5806 5804 5802 5800 5797 5795 5792 5790 5787 5784 5781 5779 5776 5773 5770 5767 5763 5760 5758 5753 5749 5745 5741 5737 5732 5728 5723 5718 5713 5707 5701 5694 5687 5680 5672 5664 5655
5804 5805 5806 5807 5809 5809 5810 5811 5812 5813 5815 5816 5817 5818 5819 5820 5821 5822 5822 5823 5824 5824 5825 5825 5826 5826 5826 5826 5826 5826 5825 5825 5825 5825 5825 5824 5824 5823 5822 5822 5821 5819 5818 5817 5816 5814 5813 5811 5809 5808 5806 5804 5802 5800 5798 5795 5793 5791 5788 5784 5780 5777 5776 5774 5772 5768 5764 5761 5757 5754 5751 5746 5742 5737 5733 5728 5724 5719 5714 5709 5702 5695 5687 5680 5673 5665 5657 5648
5805 5806 5807 5808 5809 5810 5810 5812 5813 5814 5815 5817 5818 5819 5820 5821 5821 5822 5823 5824 5824 5825 5825 5826 5826 5826 5826 5826 5826 5826 5825 5825 5825 5825 5824 5824 5824 5823 5822 5821 5820 5819 5818 5816 5815 5814 5813 5811 5809 5807 5805 5803 5801 5799 5797 5795 5793 5790 5787 5783 5779 5775 5773 5772 5770 5766 5761 5757 5754 5751 5748 5743 5738 5734 5729 5725 5720 5715 5709 5702 5695 5687 5680 5673 5666 5658 5650 5641
5806 5807 5808 5808 5810 5810 5811 5813 5814 5815 5816 5817 5819 5820 5821 5821 5822 5823 5823 5824 5825 5825 5825 5826 5826 5826 5827 5827 5826 5826 5826 5826 5826 5825 5824 5824 5824 5823 5822 5821 5820 5819 5817 5816 5815 5813 5812 5810 5808 5806 5804 5802 5801 5799 5796 5793 5790 5787 5783 5781 5778 5774 5770 5768 5765 5762 5758 5755 5752 5748 5744 5739 5735 5730 5726 5721 5716 5710 5703 5696 5689 5681 5674 5667 5659 5651 5643 5633
5807 5808 5808 5809 5810 5811 5812 5814 5815 5816 5817 5818 5819 5820 5821 5822 5823 5823 5824 5824 5825 5825 5826 5826 5827 5827 5827 5827 5826 5826 5826 5826 5826 5825 5824 5824 5824 5823 5822 5821 5820 5818 5817 5815 5814 5812 5810 5809 5807 5805 5803 5802 5800 5797 5794 5790 5787 5784 5780 5778 5777 5773 5767 5763 5761 5759 5757 5753 5749 5746 5742 5737 5731 5727 5722 5716 5711 5705 5698 5691 5684 5677 5669 5661 5654 5645 5636 5627
5807 5808 5809 5810 5811 5812 5814 5815 5816 5817 5818 5819 5820 5821 5822 5823 5823 5824 5824 5825 5825 5826 5826 5826 5827 5827 5827 5827 5827 5827 5826 5826 5825 5825 5824 5824 5824 5823 5822 5821 5819 5818 5816 5814 5813 5811 5809 5808 5806 5804 5802 5800 5797 5795 5791 5788 5785 5782 5779 5776 5773 5770 5765 5761 5758 5757 5755 5751 5747 5742 5739 5734 5729 5723 5718 5712 5706 5700 5694 5687 5679 5671 5664 5657 5649 5639 5630 5622
5807 5808 5809 5811 5812 5813 5815 5816 5817 5818 5819 5820 5821 5822 5823 5823 5824 5824 5825 5825 5825 5826 5827 5827 5827 5827 5827 5827 5827 5827 5826 5825 5825 5825 5825 5824 5823 5822 5821 5820 5818 5817 5815 5813 5812 5810 5808 5807 5805 5802 5800 5797 5795 5792 5790 5787 5784 5780 5778 5774 5770 5767 5764 5760 5756 5754 5752 5748 5743 5739 5735 5731 5726 5720 5714 5708 5702 5696 5688 5681 5674 5666 5660 5652 5643 5634 5625 5617
5808 5809 5810 5811 5813 5814 5815 5816 5817 5819 5820 5821 5821 5822 5823 5824 5824 5825 5825 5825 5826 5827 5827 5827 5827 5827 5827 5827 5827 5826 5826 5825 5825 5825 5825 5824 5822 5821 5820 5819 5818 5816 5815 5813 5811 5809 5807 5805 5803 5801 5798 5796 5793 5791 5788 5786 5783 5779 5776 5772 5768 5765 5762 5759 5755 5750 5747 5743 5740 5737 5732 5727 5722 5716 5710 5705 5698 5690 5682 5675 5669 5662 5655 5646 5638 5631 5623 5613
5808 5810 5811 5812 5813 5815 5816 5817 5818 5819 5820 5821 5822 5823 5824 5824 5825 5825 5825 5826 5826 5827 5827 5827 5828 5828 5827 5827 5827 5826 5826 5826 5825 5825 5824 5823 5822 5821 5820 5818 5817 5816 5814 5812 5810 5808 5806 5804 5802 5799 5797 5794 5792 5790 5787 5784 5781 5777 5773 5770 5767 5764 5759 5756 5752 5747 5743 5740 5737 5734 5729 5723 5718 5712 5706 5700 5693 5684 5678 5672 5665 5658 5649 5642 5636 5628 5619 5608
5809 5810 5811 5813 5814 5815 5816 5817 5819 5820 5821 5822 5823 5824 5824 5825 5825 5825 5826 5826 5827 5827 5827 5828 5828 5827 5827 5827 5827 5826 5826 5826 5825 5825 5824 5822 5822 5821 5820 5818 5817 5815 5813 5811 5809 5807 5805 5803 5800 5798 5795 5792 5790 5788 5785 5783 5779 5776 5772 5768 5765 5762 5757 5752 5748 5744 5740 5737 5733 5729 5726 5720 5714 5708 5702 5695 5688 5681 5675 5669 5662 5654 5646 5640 5632 5623 5613 5603
5809 5811 5812 5813 5814 5816 5817 5818 5820 5821 5822 5823 5824 5824 5824 5825 5825 5825 5826 5827 5827 5828 5828 5828 5828 5827 5827 5827 5827 5827 5826 5825 5825 5824 5823 5822 5822 5821 5819 5818 5816 5815 5813 5810 5808 5806 5803 5801 5799 5796 5794 5791 5789 5786 5783 5780 5777 5774 5770 5766 5762 5759 5755 5750 5746 5742 5737 5733 5729 5723 5720 5716 5709 5703 5697 5690 5684 5678 5672 5666 5659 5651 5644 5636 5627 5618 5609 5599
5809 5811 5812 5814 5815 5816 5818 5819 5820 5822 5823 5823 5824 5824 5825 5825 5825 5826 5826 5827 5827 5828 5828 5828 5827 5827 5827 5827 5827 5826 5826 5825 5824 5823 5822 5822 5821 5820 5819 5817 5816 5814 5812 5809 5807 5804 5802 5799 5797 5794 5792 5789 5786 5783 5781 5778 5774 5771 5767 5764 5760 5756 5753 5749 5745 5740 5734 5729 5724 5718 5713 5710 5703 5696 5691 5685 5680 5675 5668 5662 5655 5648 5640 5632 5623 5614 5605 5595
5810 5811 5813 5814 5816 5817 5819 5820 5821 5822 5823 5824 5824 5825 5825 5825 5826 5826 5827 5827 5828 5828 5827 5827 5827 5827 5827 5827 5827 5826 5825 5825 5824 5823 5822 5821 5820 5819 5818 5816 5815 5813 5810 5807 5805 5803 5800 5798 5795 5792 5790 5787 5784 5781 5778 5775 5772 5769 5765 5762 5758 5754 5750 5747 5743 5738 5732 5726 5720 5714 5707 5703 5698 5692 5687 5682 5676 5671 5665 5658 5651 5644 5636 5628 5619 5609 5600 5590
5810 5812 5813 5815 5816 5818 5819 5821 5822 5823 5824 5824 5825 5825 5825 5825 5826 5826 5827 5828 5828 5828 5828 5827 5827 5827 5827 5827 5826 5826 5825 5824 5824 5823 5822 5821 5820 5818 5817 5815 5813 5811 5808 5806 5803 5801 5799 5796 5793 5790 5787 5785 5782 5779 5775 5772 5769 5766 5763 5760 5756 5752 5749 5745 5741 5735 5729 5722 5716 5710 5703 5698 5695 5690 5685 5680 5674 5667 5660 5653 5645 5637 5630 5622 5614 5605 5596 5586
5810 5812 5814 5815 5817 5818 5820 5821 5822 5823 5824 5824 5825 5825 5825 5826 5826 5827 5827 5828 5828 5828 5828 5827 5827 5827 5827 5827 5826 5826 5825 5824 5823 5823 5821 5820 5819 5817 5816 5814 5811 5809 5806 5804 5802 5801 5798 5794 5791 5788 5785 5783 5780 5776 5773 5770 5766 5763 5761 5758 5755 5751 5746 5741 5737 5732 5727 5719 5711 5706 5699 5693 5691 5688 5682 5677 5670 5662 5654 5646 5639 5632 5624 5617 5611 5603 5595 5585
5811 5813 5815 5816 5817 5819 5820 5822 5823 5823 5824 5825 5825 5825 5825 5826 5827 5827 5828 5828 5828 5828 5828 5827 5827 5827 5827 5826 5826 5825 5825 5824 5823 5822 5821 5820 5818 5817 5815 5812 5810 5808 5806 5804 5802 5799 5796 5793 5790 5786 5784 5781 5778 5774 5771 5768 5764 5761 5759 5756 5752 5747 5742 5737 5732 5728 5723 5716 5708 5702 5697 5692 5688 5684 5678 5672 5665 5657 5650 5643 5636 5630 5624 5617 5610 5601 5592 5583
5812 5814 5815 5817 5818 5820 5821 5822 5823 5824 5824 5825 5825 5825 5826 5826 5827 5828 5828 5828 5828 5828 5828 5827 5827 5827 5826 5826 5826 5825 5824 5823 5822 5821 5820 5819 5817 5815 5813 5811 5809 5808 5806 5804 5801 5798 5795 5792 5789 5786 5782 5779 5776 5773 5770 5766 5762 5759 5755 5751 5747 5743 5738 5733 5727 5722 5718 5713 5706 5699 5695 5691 5687 5681 5675 5668 5661 5655 5649 5643 5636 5629 5623 5616 5608 5598 5589 5579
5813 5815 5816 5817 5819 5820 5821 5822 5823 5824 5824 5825 5825 5826 5826 5827 5827 5828 5828 5828 5828 5828 5827 5827 5827 5826 5826 5826 5825 5824 5824 5823 5822 5820 5819 5817 5815 5814 5812 5810 5808 5806 5804 5801 5799 5797 5794 5792 5788 5785 5781 5777 5774 5770 5767 5764 5760 5755 5751 5747 5743 5738 5734 5729 5722 5718 5716 5713 5706 5699 5694 5690 5686 5680 5672 5665 5659 5654 5648 5641 5635 5628 5621 5613 5603 5593 5583 5572
5814 5815 5817 5818 5820 5821 5822 5823 5823 5824 5824 5825 5825 5826 5827 5827 5828 5828 5828 5828 5828 5827 5827 5827 5826 5826 5826 5825 5825 5824 5823 5822 5820 5819 5818 5816 5815 5813 5811 5809 5807 5804 5802 5799 5797 5795 5792 5789 5785 5782 5779 5775 5771 5767 5763 5760 5756 5751 5747 5742 5737 5732 5727 5723 5718 5713 5712 5711 5707 5700 5693 5688 5683 5675 5668 5662 5658 5651 5644 5638 5632 5625 5616 5607 5598 5588 5578 5568
5815 5816 5818 5819 5820 5822 5822 5823 5823 5824 5824 5825 5826 5826 5827 5827 5828 5828 5828 5828 5827 5827 5827 5827 5826 5826 5825 5825 5824 5823 5822 5821 5819 5818 5817 5815 5814 5812 5810 5808 5806 5803 5801 5798 5795 5792 5789 5786 5783 5779 5775 5772 5768 5764 5759 5755 5752 5748 5743 5738 5734 5729 5724 5720 5715 5710 5706 5706 5705 5699 5689 5682 5677 5671 5664 5659 5653 5646 5640 5634 5628 5619 5611 5602 5593 5584 5576 5567
5816 5817 5819 5820 5821 5822 5822 5823 5823 5824 5825 5825 5826 5827 5827 5827 5828 5828 5828 5827 5827 5827 5827 5826 5826 5825 5825 5824 5823 5822 5821 5820 5818 5817 5816 5814 5812 5810 5808 5806 5804 5801 5799 5796 5793 5790 5787 5784 5781 5777 5773 5769 5766 5762 5757 5752 5748 5744 5740 5736 5732 5728 5723 5719 5715 5709 5703 5700 5699 5695 5685 5677 5673 5668 5661 5654 5648 5642 5636 5630 5623 5615 5607 5599 5591 5583 5574 5564
5817 5818 5820 5821 5821 5822 5823 5823 5824 5824 5825 5826 5826 5827 5827 5827 5827 5827 5827 5827 5827 5826 5826 5826 5825 5825 5824 5823 5822 5821 5820 5819 5817 5816 5814 5813 5811 5809 5806 5804 5802 5799 5797 5794 5791 5788 5785 5782 5779 5775 5772 5768 5764 5760 5756 5751 5746 5742 5738 5734 5729 5725 5722 5718 5713 5708 5700 5694 5692 5691 5683 5674 5670 5665 5658 5650 5643 5637 5632 5625 5618 5611 5603 5596 5588 5579 5570 5561
5818 5819 5820 5821 5822 5822 5823 5823 5824 5825 5825 5826 5826 5827 5827 5827 5827 5827 5827 5827 5826 5826 5825 5825 5824 5824 5823 5822 5821 5820 5819 5818 5816 5814 5813 5811 5809 5807 5805 5802 5800 5797 5794 5792 5789 5786 5784 5780 5777 5774 5770 5767 5763 5759 5755 5751 5746 5741 5736 5731 5726 5723 5719 5715 5710 5705 5698 5692 5688 5687 5680 5670 5665 5660 5653 5647 5641 5634 5629 5622 5614 5607 5599 5592 5583 5574 5566 5557
5818 5820 5821 5821 5822 5822 5823 5824 5824 5825 5825 5826 5827 5827 5827 5827 5827 5827 5826 5826 5826 5825 5825 5824 5823 5823 5822 5821 5820 5819 5818 5816 5815 5813 5811 5809 5808 5805 5803 5801 5798 5795 5793 5790 5787 5784 5781 5778 5775 5772 5768 5764 5761 5757 5754 5750 5745 5740 5734 5730 5725 5720 5716 5712 5707 5702 5695 5688 5683 5683 5679 5668 5661 5657 5650 5645 5639 5632 5626 5619 5611 5603 5595 5587 5579 5570 5562 5554
5819 5820 5821 5822 5822 5823 5823 5824 5825 5825 5826 5826 5827 5827 5827 5827 5827 5826 5826 5826 5825 5824 5824 5823 5823 5822 5821 5820 5819 5818 5816 5815 5813 5811 5810 5808 5806 5804 5801 5799 5796 5794 5791 5788 5785 5782 5779 5776 5773 5770 5766 5762 5759 5755 5751 5747 5742 5737 5733 5728 5723 5718 5713 5709 5705 5700 5694 5686 5678 5677 5676 5667 5658 5654 5649 5642 5636 5629 5622 5615 5606 5599 5592 5585 5576 5567 5560 5552
5820 5820 5821 5822 5822 5823 5824 5824 5825 5825 5826 5826 5827 5827 5827 5827 5826 5826 5825 5825 5824 5824 5823 5822 5822 5821 5820 5819 5817 5816 5815 5813 5811 5810 5808 5806 5804 5802 5799 5797 5794 5792 5789 5786 5783 5780 5777 5774 5771 5768 5764 5760 5756 5753 5748 5743 5739 5735 5730 5725 5721 5715 5711 5706 5703 5699 5693 5685 5675 5671 5671 5666 5657 5652 5646 5639 5633 5625 5618 5611 5604 5597 5590 5582 5574 5566 5559 5551
5820 5821 5821 5822 5823 5823 5824 5825 5825 5826 5826 5826 5826 5826 5826 5826 5826 5825 5825 5824 5823 5823 5822 5821 5820 5819 5818 5817 5816 5814 5813 5811 5810 5808 5806 5804 5802 5799 5797 5795 5792 5790 5787 5784 5781 5778 5775 5772 5769 5766 5762 5759 5754 5750 5747 5742 5738 5734 5728 5723 5718 5713 5708 5703 5699 5696 5690 5684 5676 5669 5668 5664 5656 5650 5643 5635 5629 5622 5615 5610 5604 5597 5588 5579 5571 5564 5556 5549
5820 5821 5822 5822 5823 5823 5824 5825 5825 5826 5826 5826 5826 5826 5826 5825 5825 5824 5824 5823 5822 5822 5821 5820 5819 5818 5817 5815 5814 5812 5811 5809 5808 5806 5804 5802 5800 5797 5795 5793 5790 5788 5785 5782 5779 5776 5773 5770 5766 5763 5760 5757 5753 5749 5745 5740 5735 5731 5726 5721 5716 5711 5706 5700 5695 5692 5689 5684 5676 5669 5666 5661 5652 5645 5639 5633 5626 5619 5613 5607 5600 5594 5586 5577 5569 5562 5554 5546
5821 5821 5822 5822 5823 5824 5824 5825 5825 5825 5826 5826 5826 5826 5825 5825 5824 5823 5823 5822 5821 5821 5820 5819 5817 5816 5815 5813 5812 5810 5809 5807 5805 5804 5802 5800 5798 5795 5793 5791 5788 5785 5782 5780 5777 5774 5771 5767 5764 5761 5757 5755 5750 5745 5741 5736 5731 5727 5724 5719 5714 5709 5703 5698 5693 5690 5687 5683 5675 5667 5663 5659 5650 5643 5638 5631 5624 5617 5610 5604 5597 5590 5583 5574 5567 5560 5552 5544
5821 5821 5822 5823 5823 5824 5824 5825 5825 5825 5825 5825 5825 5825 5824 5824 5823 5822 5822 5821 5820 5819 5818 5817 5816 5814 5813 5811 5810 5808 5807 5805 5803 5802 5800 5797 5795 5793 5791 5788 5786 5783 5780 5777 5774 5771 5768 5764 5761 5756 5752 5749 5746 5740 5736 5732 5727 5723 5720 5717 5712 5707 5701 5696 5692 5688 5684 5680 5674 5665 5661 5658 5650 5643 5637 5630 5624 5617 5610 5603 5595 5587 5580 5572 5565 5558 5550 5542
5821 5822 5822 5823 5823 5823 5824 5824 5824 5824 5824 5824 5824 5824 5823 5823 5822 5821 5820 5820 5819 5818 5817 5816 5814 5813 5811 5810 5808 5806 5805 5803 5801 5799 5797 5795 5793 5791 5788 5786 5783 5781 5778 5775 5772 5769 5766 5762 5758 5753 5748 5744 5741 5737 5733 5729 5725 5721 5717 5714 5710 5705 5700 5694 5689 5685 5680 5676 5672 5665 5659 5656 5651 5643 5637 5631 5624 5617 5610 5602 5593 5585 5577 5571 5564 5556 5547 5539
5821 5822 5822 5822 5823 5823 5823 5824 5824 5824 5824 5824 5823 5823 5822 5822 5821 5820 5819 5818 5817 5816 5815 5814 5812 5811 5810 5808 5806 5804 5803 5801 5799 5797 5795 5793 5791 5789 5786 5784 5781 5778 5776 5773 5770 5767 5764 5760 5757 5753 5747 5743 5740 5736 5732 5728 5724 5720 5716 5712 5709 5704 5699 5693 5687 5682 5677 5673 5670 5664 5654 5650 5647 5641 5634 5628 5622 5615 5608 5599 5591 5584 5577 5569 5561 5553 5545 5537
5821 5822 5822 5822 5823 5823 5823 5823 5823 5823 5823 5823 5822 5822 5821 5820 5820 5819 5818 5817 5816 5815 5814 5812 5811 5809 5808 5806 5804 5802 5801 5799 5797 5795 5793 5791 5789 5786 5784 5781 5779 5776 5773 5770 5767 5764 5761 5758 5755 5752 5747 5742 5739 5735 5731 5726 5722 5718 5714 5710 5706 5702 5697 5691 5685 5680 5676 5670 5667 5662 5653 5646 5642 5638 5631 5624 5618 5611 5604 5596 5589 5582 5575 5567 5559 5551 5543 5535
5821 5822 5822 5822 5822 5822 5822 5823 5822 5822 5822 5822 5821 5821 5820 5819 5818 5818 5817 5816 5815 5813 5812 5811 5809 5808 5806 5804 5802 5800 5799 5797 5794 5793 5791 5789 5786 5784 5782 5779 5776 5773 5770 5767 5765 5762 5759 5755 5752 5749 5746 5740 5736 5733 5729 5724 5720 5716 5712 5707 5704 5700 5696 5690 5683 5678 5673 5668 5662 5659 5653 5645 5638 5634 5628 5621 5614 5607 5600 5593 5586 5578 5571 5564 5557 5550 5542 5534
5821 5822 5822 5822 5822 5822 5822 5822 5822 5821 5821 5821 5820 5819 5819 5818 5817 5816 5815 5814 5813 5812 5810 5809 5807 5806 5804 5802 5800 5799 5797 5795 5792 5790 5788 5786 5784 5782 5779 5776 5774 5771 5768 5765 5762 5759 5756 5753 5749 5746 5744 5739 5734 5731 5727 5723 5719 5714 5709 5705 5700 5697 5693 5688 5681 5675 5670 5666 5660 5655 5651 5645 5637 5631 5625 5618 5611 5604 5597 5590 5583 5576 5570 5563 5555 5547 5539 5531
5821 5821 5821 5821 5822 5821 5821 5821 5821 5820 5820 5819 5819 5818 5817 5816 5816 5815 5813 5812 5811 5810 5808 5807 5805 5804 5802 5800 5798 5797 5795 5792 5790 5788 5786 5784 5782 5779 5777 5774 5771 5768 5765 5762 5759 5755 5752 5750 5746 5743 5741 5737 5732 5729 5725 5721 5717 5711 5706 5702 5697 5693 5689 5684 5678 5672 5668 5664 5658 5652 5647 5643 5636 5628 5622 5616 5609 5603 5596 5589 5581 5574 5567 5560 5552 5544 5537 5529
5821 5821 5821 5821 5821 5821 5821 5820 5820 5819 5819 5818 5817 5817 5816 5815 5814 5813 5812 5810 5809 5808 5806 5805 5803 5802 5800 5798 5796 5794 5792 5790 5788 5786 5784 5781 5779 5776 5774 5771 5768 5765 5762 5759 5756 5753 5749 5746 5743 5739 5737 5734 5729 5725 5722 5717 5713 5709 5704 5699 5694 5689 5686 5683 5677 5670 5665 5661 5656 5650 5643 5638 5633 5627 5621 5615 5607 5601 5594 5587 5580 5573 5565 5557 5550 5542 5535 5527
5821 5821 5821 5821 5820 5820 5820 5819 5819 5818 5817 5816 5816 5815 5814 5813 5812 5811 5809 5808 5807 5805 5804 5802 5801 5799 5797 5796 5794 5792 5790 5788 5786 5784 5781 5779 5776 5774 5771 5768 5765 5762 5759 5756 5753 5750 5746 5742 5739 5735 5733 5730 5726 5721 5718 5714 5710 5706 5701 5696 5691 5687 5684 5682 5676 5669 5664 5659 5653 5648 5642 5637 5631 5625 5619 5613 5606 5599 5592 5585 5578 5571 5564 5555 5548 5541 5533 5526